,,PA_Meas_PMT16A,,PR_Meas_QMR101_102,,RH_Meas_QMH101,,SR_Meas_QMS101,,TA_Meas_QMH101,,GenWind,,GenWind,
time,status,PA,status,PR,status,RH,status,SR,status,TA,status,DirAvg,status,SpdAvg,
2010-01-16, 00:00:05,VALID,921.191,VALID,0,VALID,92.8532,VALID,0,VALID,20.0898,VALID,166,VALID,1.08594,
2010-01-16, 00:01:05,VALID,921.173,VALID,0,VALID,92.7998,VALID,0.107441,VALID,20.1288,VALID,166,VALID,1.06367,
2010-01-16, 00:02:05,VALID,921.203,VALID,0,VALID,92.8456,VALID,0,VALID,20.0898,VALID,166,VALID,0.732422,
2010-01-16, 00:03:05,VALID,921.197,VALID,0,VALID,92.9904,VALID,0,VALID,20.0493,VALID,166,VALID,0.969922,
2010-01-16, 00:04:05,VALID,921.192,VALID,0,VALID,93.1048,VALID,0,VALID,20.0703,VALID,166,VALID,0.600391,
2010-01-16, 00:05:05,VALID,921.177,VALID,0,VALID,93.0362,VALID,0,VALID,20.0703,VALID,166,VALID,0.846484,
2010-01-16, 00:06:05,VALID,921.16,VALID,0,VALID,92.9523,VALID,0.107441,VALID,20.0493,VALID,166,VALID,1.18594,
2010-01-16, 00:07:05,VALID,921.146,VALID,0,VALID,92.9599,VALID,0.107441,VALID,20.0103,VALID,166,VALID,1.02656,
2010-01-16, 00:08:05,VALID,921.156,VALID,0,VALID,93.0514,VALID,0.107441,VALID,20.0118,VALID,166,VALID,1.17813,
2010-01-16, 00:09:05,VALID,921.141,VALID,0,VALID,93.12,VALID,0.107441,VALID,20.0118,VALID,166,VALID,1.50195,
2010-01-16, 00:10:05,VALID,921.122,VALID,0,VALID,93.0667,VALID,0.107441,VALID,20.0103,VALID,140,VALID,1.27734,
2010-01-16, 00:11:05,VALID,921.13,VALID,0,VALID,92.9828,VALID,0.107441,VALID,19.9908,VALID,130,VALID,0.877734,
2010-01-16, 00:12:05,VALID,921.129,VALID,0,VALID,93.2115,VALID,0.107441,VALID,19.9713,VALID,107,VALID,1.47812,
2010-01-16, 00:13:05,VALID,921.103,VALID,0,VALID,93.364,VALID,0.107441,VALID,19.9923,VALID,107,VALID,1.64648,
2010-01-16, 00:14:05,VALID,921.112,VALID,0,VALID,93.425,VALID,0.107441,VALID,19.9518,VALID,109,VALID,1.34063,
2010-01-16, 00:15:05,VALID,921.113,VALID,0,VALID,93.5698,VALID,0.107441,VALID,19.9323,VALID,111,VALID,1.63867,
2010-01-16, 00:16:05,VALID,921.121,VALID,0,VALID,93.6918,VALID,0.107441,VALID,19.9323,VALID,103,VALID,1.49453,
2010-01-16, 00:17:05,VALID,921.105,VALID,0,VALID,93.6765,VALID,0.107441,VALID,19.9323,VALID,100,VALID,1.48125,
2010-01-16, 00:18:05,VALID,921.094,VALID,0,VALID,93.6308,VALID,0.107441,VALID,19.9518,VALID,99,VALID,1.37539,
2010-01-16, 00:19:05,VALID,921.071,VALID,0,VALID,93.5546,VALID,0.107441,VALID,19.9713,VALID,99,VALID,1.27344,
2010-01-16, 00:20:05,VALID,921.047,VALID,0,VALID,93.5469,VALID,0.107441,VALID,19.9713,VALID,99,VALID,1.15859,
2010-01-16, 00:21:05,VALID,921.008,VALID,0,VALID,93.4326,VALID,0.107441,VALID,20.0298,VALID,99,VALID,0.963672,
2010-01-16, 00:22:05,VALID,921.002,VALID,0,VALID,93.2801,VALID,0.107441,VALID,20.0493,VALID,99,VALID,0.758203,
2010-01-16, 00:23:05,VALID,920.975,VALID,0,VALID,93.1124,VALID,0.107441,VALID,20.0898,VALID,99,VALID,0.825781,
2010-01-16, 00:24:05,VALID,921.005,VALID,0,VALID,92.9676,VALID,0.107441,VALID,20.1093,VALID,99,VALID,0.838281,
2010-01-16, 00:25:05,VALID,920.956,VALID,0,VALID,92.8227,VALID,0.107441,VALID,20.1093,VALID,99,VALID,0.859375,
2010-01-16, 00:26:05,VALID,920.962,VALID,0,VALID,92.7236,VALID,0.107441,VALID,20.1288,VALID,99,VALID,1.21484,
2010-01-16, 00:27:05,VALID,920.953,VALID,0,VALID,92.7236,VALID,0.107441,VALID,20.1288,VALID,99,VALID,1.21055,
2010-01-16, 00:28:05,VALID,920.946,VALID,0,VALID,92.7312,VALID,0.107441,VALID,20.1288,VALID,99,VALID,1.33359,
2010-01-16, 00:29:05,VALID,920.937,VALID,0,VALID,92.7084,VALID,0.107441,VALID,20.1288,VALID,99,VALID,0.797266,
2010-01-16, 00:30:05,VALID,920.963,VALID,0,VALID,92.533,VALID,0.107441,VALID,20.1467,VALID,100,VALID,0.857031,
2010-01-16, 00:31:05,VALID,920.927,VALID,0,VALID,92.4187,VALID,0.107441,VALID,20.1873,VALID,100,VALID,0.942187,
2010-01-16, 00:32:05,VALID,920.913,VALID,0,VALID,92.3043,VALID,0.107441,VALID,20.2068,VALID,100,VALID,0.783203,
2010-01-16, 00:33:04,VALID,920.927,VALID,0,VALID,92.1137,VALID,0.107441,VALID,20.2068,VALID,100,VALID,0.921094,
2010-01-16, 00:34:04,VALID,920.893,VALID,0,VALID,92.19,VALID,0.107441,VALID,20.2068,VALID,101,VALID,0.45625,
2010-01-16, 00:35:04,VALID,920.88,VALID,0,VALID,92.1442,VALID,0.107441,VALID,20.1873,VALID,101,VALID,0.317969,
2010-01-16, 00:36:04,VALID,920.87,VALID,0,VALID,92.1061,VALID,0.107441,VALID,20.1873,VALID,101,VALID,0.879687,
2010-01-16, 00:37:04,VALID,920.849,VALID,0,VALID,92.2357,VALID,0.107441,VALID,20.1467,VALID,101,VALID,0.511328,
2010-01-16, 00:38:04,VALID,920.848,VALID,0,VALID,92.2738,VALID,0.107441,VALID,20.1272,VALID,101,VALID,0.803125,
2010-01-16, 00:39:04,VALID,920.85,VALID,0,VALID,92.3958,VALID,0.107441,VALID,20.1288,VALID,101,VALID,0.846875,
2010-01-16, 00:40:04,VALID,920.806,VALID,0,VALID,92.3424,VALID,0.107441,VALID,20.1077,VALID,101,VALID,0.971875,
2010-01-16, 00:41:04,VALID,920.812,VALID,0,VALID,92.2814,VALID,0,VALID,20.1483,VALID,120,VALID,1.30313,
2010-01-16, 00:42:04,VALID,920.768,VALID,0,VALID,92.2738,VALID,0.107441,VALID,20.1483,VALID,120,VALID,0.827734,
2010-01-16, 00:43:04,VALID,920.776,VALID,0,VALID,92.2052,VALID,0.107441,VALID,20.1483,VALID,129,VALID,1.21719,
2010-01-16, 00:44:04,VALID,920.768,VALID,0,VALID,92.1366,VALID,0.107441,VALID,20.1467,VALID,129,VALID,1.23008,
2010-01-16, 00:45:04,VALID,920.789,VALID,0,VALID,92.0909,VALID,0.107441,VALID,20.1483,VALID,123,VALID,1.78242,
2010-01-16, 00:46:04,VALID,920.764,VALID,0,VALID,92.0832,VALID,0.107441,VALID,20.1467,VALID,118,VALID,1.33086,
2010-01-16, 00:47:04,VALID,920.792,VALID,0,VALID,92.0375,VALID,0.107441,VALID,20.1873,VALID,118,VALID,0.994141,
2010-01-16, 00:48:04,VALID,920.796,VALID,0,VALID,92.0756,VALID,0.107441,VALID,20.1873,VALID,118,VALID,1.28477,
2010-01-16, 00:49:04,VALID,920.76,VALID,0,VALID,92.0375,VALID,0,VALID,20.1467,VALID,118,VALID,1.20508,
2010-01-16, 00:50:04,VALID,920.761,VALID,0,VALID,92.0527,VALID,0.107441,VALID,20.1662,VALID,117,VALID,1.58945,
2010-01-16, 00:51:04,VALID,920.754,VALID,0,VALID,92.1442,VALID,0.107441,VALID,20.1467,VALID,118,VALID,1.17578,
2010-01-16, 00:52:04,VALID,920.765,VALID,0,VALID,92.2357,VALID,0.107441,VALID,20.1272,VALID,111,VALID,1.47656,
2010-01-16, 00:53:04,VALID,920.733,VALID,0,VALID,92.3958,VALID,0.107441,VALID,20.1288,VALID,105,VALID,1.04531,
2010-01-16, 00:54:04,VALID,920.753,VALID,0,VALID,92.5102,VALID,0.107441,VALID,20.1077,VALID,105,VALID,1.12461,
2010-01-16, 00:55:04,VALID,920.726,VALID,0,VALID,92.5102,VALID,0,VALID,20.1272,VALID,157,VALID,1.13164,
2010-01-16, 00:56:04,VALID,920.7,VALID,0,VALID,92.4644,VALID,0.107441,VALID,20.1077,VALID,114,VALID,1.41328,
2010-01-16, 00:57:04,VALID,920.677,VALID,0,VALID,92.5559,VALID,0.107441,VALID,20.1483,VALID,142,VALID,0.776953,
2010-01-16, 00:58:04,VALID,920.647,VALID,0,VALID,92.4568,VALID,0.107441,VALID,20.1272,VALID,113,VALID,1.26836,
2010-01-16, 00:59:04,VALID,920.641,VALID,0,VALID,92.5559,VALID,0.107441,VALID,20.1077,VALID,113,VALID,1.1707,
2010-01-16, 01:00:04,VALID,920.615,VALID,0,VALID,92.6169,VALID,0.107441,VALID,20.1288,VALID,114,VALID,1.46484,
2010-01-16, 01:01:04,VALID,920.601,VALID,0,VALID,92.7389,VALID,0.107441,VALID,20.0898,VALID,144,VALID,1.31094,
2010-01-16, 01:02:04,VALID,920.6,VALID,0,VALID,92.8456,VALID,0.107441,VALID,20.0703,VALID,112,VALID,1.48477,
2010-01-16, 01:03:04,VALID,920.581,VALID,0,VALID,92.9066,VALID,0.107441,VALID,20.0703,VALID,116,VALID,1.21563,
2010-01-16, 01:04:04,VALID,920.584,VALID,0,VALID,92.8075,VALID,0.107441,VALID,20.0703,VALID,112,VALID,1.44023,
2010-01-16, 01:05:04,VALID,920.586,VALID,0,VALID,92.7617,VALID,0.107441,VALID,20.0493,VALID,112,VALID,1.49219,
2010-01-16, 01:06:04,VALID,920.564,VALID,0,VALID,92.9142,VALID,0.107441,VALID,20.0493,VALID,97,VALID,0.769141,
2010-01-16, 01:07:04,VALID,920.553,VALID,0,VALID,92.7922,VALID,0,VALID,20.0508,VALID,97,VALID,1.22812,
2010-01-16, 01:08:04,VALID,920.529,VALID,0,VALID,93.0362,VALID,0,VALID,20.0508,VALID,97,VALID,0.975391,
2010-01-16, 01:09:04,VALID,920.478,VALID,0,VALID,92.8151,VALID,0.107441,VALID,20.0103,VALID,97,VALID,1.28555,
2010-01-16, 01:10:04,VALID,920.488,VALID,0,VALID,92.777,VALID,0,VALID,20.0103,VALID,97,VALID,1.42773,
2010-01-16, 01:11:04,VALID,920.473,VALID,0,VALID,92.9218,VALID,0,VALID,20.0313,VALID,97,VALID,0.750781,
2010-01-16, 01:12:04,VALID,920.443,VALID,0,VALID,92.9523,VALID,0.107441,VALID,20.0118,VALID,97,VALID,1.23008,
2010-01-16, 01:13:04,VALID,920.443,VALID,0,VALID,92.7998,VALID,0,VALID,19.9908,VALID,109,VALID,1.45703,
2010-01-16, 01:14:04,VALID,920.417,VALID,0,VALID,92.4873,VALID,0,VALID,20.0703,VALID,122,VALID,0.892578,
2010-01-16, 01:15:04,VALID,920.4,VALID,0,VALID,92.3424,VALID,0.107441,VALID,20.0898,VALID,110,VALID,1.19336,
2010-01-16, 01:16:04,VALID,920.35,VALID,0,VALID,92.4263,VALID,0.107441,VALID,20.1093,VALID,105,VALID,0.998828,
2010-01-16, 01:17:04,VALID,920.343,VALID,0,VALID,92.4568,VALID,0,VALID,20.0703,VALID,105,VALID,0.829297,
2010-01-16, 01:18:04,VALID,920.327,VALID,0,VALID,92.411,VALID,0.107441,VALID,20.0882,VALID,161,VALID,1.20586,
2010-01-16, 01:19:04,VALID,920.315,VALID,0,VALID,92.3119,VALID,0,VALID,20.0882,VALID,145,VALID,1.40742,
2010-01-16, 01:20:04,VALID,920.292,VALID,0,VALID,92.4415,VALID,0,VALID,20.1093,VALID,156,VALID,1.33906,
2010-01-16, 01:21:04,VALID,920.292,VALID,0,VALID,92.5254,VALID,0,VALID,20.1093,VALID,170,VALID,1.37188,
2010-01-16, 01:22:04,VALID,920.267,VALID,0,VALID,92.8075,VALID,0,VALID,20.0898,VALID,170,VALID,1.10664,
2010-01-16, 01:23:04,VALID,920.236,VALID,0,VALID,92.7998,VALID,0.107441,VALID,20.0508,VALID,170,VALID,1.16055,
2010-01-16, 01:24:04,VALID,920.22,VALID,0,VALID,92.9066,VALID,0,VALID,20.0493,VALID,170,VALID,0.748438,
2010-01-16, 01:25:04,VALID,920.23,VALID,0,VALID,92.8913,VALID,0,VALID,20.0313,VALID,170,VALID,1.26445,
2010-01-16, 01:26:04,VALID,920.19,VALID,0,VALID,93.1429,VALID,0,VALID,20.0313,VALID,170,VALID,0.592969,
2010-01-16, 01:27:04,VALID,920.201,VALID,0,VALID,93.0895,VALID,0,VALID,19.9713,VALID,170,VALID,0.866797,
2010-01-16, 01:28:04,VALID,920.177,VALID,0,VALID,93.0057,VALID,0,VALID,20.0118,VALID,170,VALID,0.944922,
2010-01-16, 01:29:04,VALID,920.162,VALID,0,VALID,92.9752,VALID,0.107441,VALID,20.0118,VALID,152,VALID,1.27852,
2010-01-16, 01:30:04,VALID,920.107,VALID,0,VALID,92.8685,VALID,0,VALID,20.0118,VALID,127,VALID,0.810547,
2010-01-16, 01:31:04,VALID,920.126,VALID,0,VALID,92.9218,VALID,0,VALID,20.0313,VALID,127,VALID,0.574219,
2010-01-16, 01:32:04,VALID,920.087,VALID,0,VALID,93.0514,VALID,0,VALID,20.0703,VALID,138,VALID,0.493359,
2010-01-16, 01:33:04,VALID,920.067,VALID,0,VALID,92.7922,VALID,0,VALID,20.0703,VALID,138,VALID,0.601953,
2010-01-16, 01:34:04,VALID,920.061,VALID,0,VALID,92.777,VALID,0.107441,VALID,20.0703,VALID,138,VALID,0.717188,
2010-01-16, 01:35:04,VALID,920.081,VALID,0,VALID,92.7312,VALID,0,VALID,20.0898,VALID,138,VALID,0.509375,
2010-01-16, 01:36:04,VALID,920.058,VALID,0,VALID,92.8151,VALID,0,VALID,20.0898,VALID,138,VALID,0.666406,
2010-01-16, 01:37:04,VALID,920.05,VALID,0,VALID,92.8227,VALID,0,VALID,20.0898,VALID,138,VALID,1.01289,
2010-01-16, 01:38:04,VALID,920.049,VALID,0,VALID,92.838,VALID,0.107441,VALID,20.1093,VALID,138,VALID,0.430859,
2010-01-16, 01:39:04,VALID,920.024,VALID,0,VALID,92.7465,VALID,0.107441,VALID,20.0898,VALID,138,VALID,0.33125,
2010-01-16, 01:40:04,VALID,920.038,VALID,0,VALID,92.7846,VALID,0,VALID,20.0898,VALID,138,VALID,0.349609,
2010-01-16, 01:41:04,VALID,920.014,VALID,0,VALID,93.3411,VALID,0,VALID,20.0898,VALID,138,VALID,0.283203,
2010-01-16, 01:42:04,VALID,919.999,VALID,0,VALID,93.3106,VALID,0,VALID,20.0898,VALID,138,VALID,0.591797,
2010-01-16, 01:43:04,VALID,920.002,VALID,0,VALID,93.3487,VALID,0.107441,VALID,20.0688,VALID,138,VALID,0.336719,
2010-01-16, 01:44:04,VALID,920.013,VALID,0,VALID,93.4173,VALID,0,VALID,20.0703,VALID,138,VALID,0.0488281,
2010-01-16, 01:45:04,VALID,920.01,VALID,0,VALID,93.5317,VALID,0,VALID,20.0508,VALID,138,VALID,0.475781,
2010-01-16, 01:46:04,VALID,919.994,VALID,0,VALID,93.8214,VALID,0.107441,VALID,20.0508,VALID,138,VALID,0,
2010-01-16, 01:47:04,VALID,919.963,VALID,0,VALID,93.829,VALID,0,VALID,20.0508,VALID,138,VALID,0.0929687,
2010-01-16, 01:48:04,VALID,919.988,VALID,0,VALID,93.9357,VALID,0,VALID,20.0313,VALID,138,VALID,0,
2010-01-16, 01:49:04,VALID,919.963,VALID,0,VALID,93.9129,VALID,0.107441,VALID,20.0118,VALID,138,VALID,0,
2010-01-16, 01:50:04,VALID,919.905,VALID,0,VALID,93.7147,VALID,0,VALID,19.9923,VALID,138,VALID,0,
2010-01-16, 01:51:04,VALID,919.88,VALID,0,VALID,94.3017,VALID,0,VALID,19.9923,VALID,138,VALID,0,
2010-01-16, 01:52:04,VALID,919.871,VALID,0,VALID,94.233,VALID,0.107441,VALID,19.9923,VALID,138,VALID,0,
2010-01-16, 01:53:04,VALID,919.831,VALID,0,VALID,94.2102,VALID,0,VALID,19.9533,VALID,138,VALID,0,
2010-01-16, 01:54:04,VALID,919.831,VALID,0,VALID,94.1949,VALID,0,VALID,19.9338,VALID,138,VALID,0,
2010-01-16, 01:55:04,VALID,919.768,VALID,0,VALID,94.3703,VALID,0,VALID,19.9338,VALID,138,VALID,0,
2010-01-16, 01:56:04,VALID,919.802,VALID,0,VALID,94.4694,VALID,0,VALID,19.9143,VALID,138,VALID,0.128516,
2010-01-16, 01:57:04,VALID,919.797,VALID,0,VALID,94.2559,VALID,0.107441,VALID,19.8753,VALID,138,VALID,0.485938,
2010-01-16, 01:58:04,VALID,919.771,VALID,0,VALID,94.3169,VALID,0,VALID,19.8558,VALID,138,VALID,0.532812,
2010-01-16, 01:59:04,VALID,919.771,VALID,0,VALID,94.4694,VALID,0,VALID,19.8558,VALID,138,VALID,0.270703,
2010-01-16, 02:00:04,VALID,919.774,VALID,0,VALID,94.5227,VALID,0,VALID,19.8153,VALID,138,VALID,0.315234,
2010-01-16, 02:01:04,VALID,919.785,VALID,0.2,VALID,94.6066,VALID,0.107441,VALID,19.8363,VALID,138,VALID,0.301172,
2010-01-16, 02:02:04,VALID,919.778,VALID,0,VALID,94.8353,VALID,0,VALID,19.8558,VALID,138,VALID,0,
2010-01-16, 02:03:04,VALID,919.756,VALID,0,VALID,94.7819,VALID,0,VALID,19.8363,VALID,138,VALID,0.40625,
2010-01-16, 02:04:04,VALID,919.758,VALID,0,VALID,94.9115,VALID,0.107441,VALID,19.8558,VALID,138,VALID,0.241016,
2010-01-16, 02:05:04,VALID,919.77,VALID,0,VALID,94.9878,VALID,0,VALID,19.8558,VALID,138,VALID,0,
2010-01-16, 02:06:04,VALID,919.752,VALID,0,VALID,95.125,VALID,0,VALID,19.8753,VALID,138,VALID,0,
2010-01-16, 02:07:04,VALID,919.758,VALID,0,VALID,95.2012,VALID,0.107441,VALID,19.8753,VALID,138,VALID,0,
2010-01-16, 02:08:04,VALID,919.754,VALID,0,VALID,95.0716,VALID,0.107441,VALID,19.8348,VALID,138,VALID,0,
2010-01-16, 02:09:04,VALID,919.748,VALID,0,VALID,95.0869,VALID,0,VALID,19.8363,VALID,138,VALID,0.314453,
2010-01-16, 02:10:04,VALID,919.733,VALID,0,VALID,95.0183,VALID,0.107441,VALID,19.8153,VALID,138,VALID,0.0109375,
2010-01-16, 02:11:04,VALID,919.686,VALID,0,VALID,95.1021,VALID,0.107441,VALID,19.8558,VALID,138,VALID,0.433203,
2010-01-16, 02:12:04,VALID,919.736,VALID,0,VALID,95.0564,VALID,0.107441,VALID,19.8363,VALID,138,VALID,0.413672,
2010-01-16, 02:13:04,VALID,919.684,VALID,0.2,VALID,95.1174,VALID,0,VALID,19.8363,VALID,138,VALID,0.0449219,
2010-01-16, 02:14:04,VALID,919.673,VALID,0,VALID,95.1402,VALID,0.107441,VALID,19.8363,VALID,138,VALID,0.0425781,
2010-01-16, 02:15:04,VALID,919.675,VALID,0,VALID,95.0945,VALID,0,VALID,19.8168,VALID,138,VALID,0,
2010-01-16, 02:16:04,VALID,919.634,VALID,0,VALID,94.9801,VALID,0,VALID,19.7778,VALID,138,VALID,0,
2010-01-16, 02:17:04,VALID,919.625,VALID,0,VALID,95.2088,VALID,0,VALID,19.7778,VALID,138,VALID,0.293359,
2010-01-16, 02:18:04,VALID,919.597,VALID,0,VALID,95.3384,VALID,0.107441,VALID,19.7778,VALID,138,VALID,0.464063,
2010-01-16, 02:19:04,VALID,919.587,VALID,0,VALID,95.2698,VALID,0,VALID,19.7373,VALID,138,VALID,0.611719,
2010-01-16, 02:20:04,VALID,919.576,VALID,0,VALID,95.247,VALID,0,VALID,19.7193,VALID,138,VALID,0.823047,
2010-01-16, 02:21:04,VALID,919.575,VALID,0,VALID,95.2698,VALID,0,VALID,19.6803,VALID,138,VALID,0.909766,
2010-01-16, 02:22:04,VALID,919.572,VALID,0,VALID,95.3613,VALID,0,VALID,19.6803,VALID,138,VALID,1.21719,
2010-01-16, 02:23:04,VALID,919.566,VALID,0,VALID,95.4757,VALID,0,VALID,19.6608,VALID,138,VALID,0.879687,
2010-01-16, 02:24:04,VALID,919.576,VALID,0,VALID,95.6053,VALID,0,VALID,19.6608,VALID,138,VALID,0.642969,
2010-01-16, 02:25:04,VALID,919.552,VALID,0,VALID,95.6739,VALID,0,VALID,19.6608,VALID,138,VALID,0.914844,
2010-01-16, 02:26:04,VALID,919.576,VALID,0,VALID,95.7349,VALID,0,VALID,19.6608,VALID,138,VALID,0.417578,
2010-01-16, 02:27:04,VALID,919.584,VALID,0,VALID,95.7425,VALID,0,VALID,19.6608,VALID,138,VALID,0.396484,
2010-01-16, 02:28:04,VALID,919.587,VALID,0,VALID,95.7196,VALID,0.107441,VALID,19.6398,VALID,138,VALID,0.955078,
2010-01-16, 02:29:04,VALID,919.609,VALID,0,VALID,95.773,VALID,0,VALID,19.6818,VALID,138,VALID,0.968359,
2010-01-16, 02:30:04,VALID,919.57,VALID,0,VALID,95.8035,VALID,0.107441,VALID,19.6608,VALID,138,VALID,0.914844,
2010-01-16, 02:31:04,VALID,919.581,VALID,0,VALID,95.8797,VALID,0.107441,VALID,19.6398,VALID,138,VALID,0.789844,
2010-01-16, 02:32:04,VALID,919.56,VALID,0,VALID,95.8568,VALID,0,VALID,19.6398,VALID,138,VALID,0.876562,
2010-01-16, 02:33:04,VALID,919.565,VALID,0,VALID,95.9026,VALID,0,VALID,19.6398,VALID,138,VALID,0.584375,
2010-01-16, 02:34:04,VALID,919.54,VALID,0,VALID,95.8492,VALID,0,VALID,19.6608,VALID,138,VALID,0.569141,
2010-01-16, 02:35:04,VALID,919.549,VALID,0,VALID,95.8797,VALID,0,VALID,19.6608,VALID,138,VALID,0.712109,
2010-01-16, 02:36:04,VALID,919.55,VALID,0,VALID,95.895,VALID,0.107441,VALID,19.6593,VALID,138,VALID,0.997266,
2010-01-16, 02:37:04,VALID,919.531,VALID,0,VALID,95.8873,VALID,0.107441,VALID,19.6608,VALID,138,VALID,0.800391,
2010-01-16, 02:38:04,VALID,919.532,VALID,0,VALID,95.9026,VALID,0,VALID,19.6803,VALID,138,VALID,0.489453,
2010-01-16, 02:39:04,VALID,919.523,VALID,0,VALID,95.8416,VALID,0,VALID,19.6803,VALID,138,VALID,0.899609,
2010-01-16, 02:40:04,VALID,919.499,VALID,0,VALID,95.8568,VALID,0,VALID,19.6803,VALID,146,VALID,0.918359,
2010-01-16, 02:41:04,VALID,919.487,VALID,0,VALID,95.8416,VALID,0.107441,VALID,19.6803,VALID,171,VALID,0.528906,
2010-01-16, 02:42:04,VALID,919.514,VALID,0,VALID,95.7806,VALID,0,VALID,19.6803,VALID,171,VALID,1.39023,
2010-01-16, 02:43:04,VALID,919.515,VALID,0,VALID,95.7958,VALID,0.107441,VALID,19.6803,VALID,152,VALID,1.23594,
2010-01-16, 02:44:04,VALID,919.503,VALID,0,VALID,95.7577,VALID,0,VALID,19.6803,VALID,143,VALID,0.876953,
2010-01-16, 02:45:04,VALID,919.468,VALID,0,VALID,95.7501,VALID,0,VALID,19.6608,VALID,155,VALID,0.929688,
2010-01-16, 02:46:04,VALID,919.495,VALID,0,VALID,95.7425,VALID,0,VALID,19.6608,VALID,145,VALID,1.32617,
2010-01-16, 02:47:04,VALID,919.459,VALID,0,VALID,95.7425,VALID,0,VALID,19.6608,VALID,151,VALID,0.739062,
2010-01-16, 02:48:04,VALID,919.459,VALID,0,VALID,95.7501,VALID,0.107441,VALID,19.6608,VALID,151,VALID,1.14102,
2010-01-16, 02:49:04,VALID,919.446,VALID,0,VALID,95.8111,VALID,0.107441,VALID,19.6608,VALID,151,VALID,0.582031,
2010-01-16, 02:50:04,VALID,919.427,VALID,0,VALID,95.7806,VALID,0.107441,VALID,19.6608,VALID,168,VALID,0.725781,
2010-01-16, 02:51:04,VALID,919.444,VALID,0,VALID,95.7196,VALID,0,VALID,19.6398,VALID,168,VALID,0.967578,
2010-01-16, 02:52:04,VALID,919.439,VALID,0,VALID,95.712,VALID,0.107441,VALID,19.6608,VALID,168,VALID,1.38633,
2010-01-16, 02:53:04,VALID,919.439,VALID,0,VALID,95.6357,VALID,0,VALID,19.6398,VALID,168,VALID,0.751172,
2010-01-16, 02:54:04,VALID,919.452,VALID,0,VALID,95.6662,VALID,0,VALID,19.6398,VALID,167,VALID,0.6875,
2010-01-16, 02:55:04,VALID,919.439,VALID,0,VALID,95.6434,VALID,0.107441,VALID,19.6608,VALID,137,VALID,1.02617,
2010-01-16, 02:56:04,VALID,919.438,VALID,0,VALID,95.7272,VALID,0.107441,VALID,19.6398,VALID,147,VALID,0.721484,
2010-01-16, 02:57:04,VALID,919.419,VALID,0,VALID,95.6434,VALID,0,VALID,19.6608,VALID,147,VALID,1.15742,
2010-01-16, 02:58:04,VALID,919.419,VALID,0,VALID,95.6357,VALID,0,VALID,19.6608,VALID,147,VALID,1.42773,
2010-01-16, 02:59:04,VALID,919.403,VALID,0,VALID,95.651,VALID,0,VALID,19.6218,VALID,146,VALID,1.09609,
2010-01-16, 03:00:04,VALID,919.408,VALID,0,VALID,95.7501,VALID,0,VALID,19.6218,VALID,146,VALID,1.29414,
2010-01-16, 03:01:04,VALID,919.384,VALID,0,VALID,95.7882,VALID,0,VALID,19.6023,VALID,146,VALID,1.05078,
2010-01-16, 03:02:04,VALID,919.373,VALID,0,VALID,95.8492,VALID,0,VALID,19.5423,VALID,83,VALID,0.852344,
2010-01-16, 03:03:04,VALID,919.353,VALID,0,VALID,95.9407,VALID,0,VALID,19.5633,VALID,133,VALID,1.16055,
2010-01-16, 03:04:04,VALID,919.365,VALID,0,VALID,95.9864,VALID,0.107441,VALID,19.5438,VALID,106,VALID,0.937109,
2010-01-16, 03:05:04,VALID,919.353,VALID,0,VALID,96.0703,VALID,0,VALID,19.5438,VALID,105,VALID,1.42305,
2010-01-16, 03:06:04,VALID,919.299,VALID,0,VALID,96.0703,VALID,0,VALID,19.5243,VALID,105,VALID,0.901953,
2010-01-16, 03:07:04,VALID,919.302,VALID,0,VALID,96.1618,VALID,0,VALID,19.5258,VALID,105,VALID,0.950781,
2010-01-16, 03:08:04,VALID,919.27,VALID,0,VALID,96.1618,VALID,0.107441,VALID,19.5048,VALID,105,VALID,0.874219,
2010-01-16, 03:09:04,VALID,919.233,VALID,0,VALID,96.2533,VALID,0,VALID,19.4853,VALID,101,VALID,1.64297,
2010-01-16, 03:10:04,VALID,919.238,VALID,0,VALID,96.2685,VALID,0.107441,VALID,19.5048,VALID,117,VALID,1.30508,
2010-01-16, 03:11:04,VALID,919.235,VALID,0,VALID,96.2914,VALID,0.107441,VALID,19.4853,VALID,117,VALID,1.3543,
2010-01-16, 03:12:04,VALID,919.234,VALID,0,VALID,96.2914,VALID,0.107441,VALID,19.4853,VALID,117,VALID,1.56523,
2010-01-16, 03:13:04,VALID,919.199,VALID,0,VALID,96.3142,VALID,0,VALID,19.4853,VALID,134,VALID,1.4457,
2010-01-16, 03:14:04,VALID,919.248,VALID,0,VALID,96.299,VALID,0.107441,VALID,19.5048,VALID,134,VALID,1.27695,
2010-01-16, 03:15:04,VALID,919.243,VALID,0,VALID,96.299,VALID,0.107441,VALID,19.4853,VALID,137,VALID,1.35781,
2010-01-16, 03:16:04,VALID,919.233,VALID,0,VALID,96.2685,VALID,0.107441,VALID,19.4853,VALID,138,VALID,1.21211,
2010-01-16, 03:17:04,VALID,919.244,VALID,0,VALID,96.2685,VALID,0.107441,VALID,19.5048,VALID,123,VALID,1.01797,
2010-01-16, 03:18:04,VALID,919.27,VALID,0,VALID,96.2761,VALID,0.107441,VALID,19.4853,VALID,145,VALID,1.19219,
2010-01-16, 03:19:04,VALID,919.242,VALID,0,VALID,96.2761,VALID,0.107441,VALID,19.4853,VALID,145,VALID,0.866016,
2010-01-16, 03:20:04,VALID,919.235,VALID,0,VALID,96.299,VALID,0.107441,VALID,19.4853,VALID,145,VALID,1.21484,
2010-01-16, 03:21:04,VALID,919.26,VALID,0,VALID,96.3066,VALID,0,VALID,19.4673,VALID,121,VALID,1.18438,
2010-01-16, 03:22:04,VALID,919.262,VALID,0,VALID,96.3524,VALID,0,VALID,19.4658,VALID,138,VALID,1.62461,
2010-01-16, 03:23:04,VALID,919.274,VALID,0,VALID,96.3371,VALID,0,VALID,19.4868,VALID,114,VALID,0.523828,
2010-01-16, 03:24:04,VALID,919.284,VALID,0,VALID,96.3447,VALID,0,VALID,19.4673,VALID,148,VALID,1.13242,
2010-01-16, 03:25:04,VALID,919.27,VALID,0,VALID,96.3371,VALID,0,VALID,19.4883,VALID,175,VALID,0.799609,
2010-01-16, 03:26:04,VALID,919.273,VALID,0,VALID,96.3066,VALID,0,VALID,19.4868,VALID,136,VALID,1.375,
2010-01-16, 03:27:04,VALID,919.272,VALID,0,VALID,96.2228,VALID,0,VALID,19.4673,VALID,129,VALID,0.746094,
2010-01-16, 03:28:04,VALID,919.247,VALID,0,VALID,96.177,VALID,0,VALID,19.4868,VALID,129,VALID,1.66758,
2010-01-16, 03:29:04,VALID,919.24,VALID,0,VALID,96.1618,VALID,0,VALID,19.5063,VALID,123,VALID,1.1582,
2010-01-16, 03:30:04,VALID,919.259,VALID,0,VALID,96.0398,VALID,0,VALID,19.5258,VALID,123,VALID,1.14766,
2010-01-16, 03:31:04,VALID,919.249,VALID,0,VALID,95.9331,VALID,0,VALID,19.4853,VALID,123,VALID,1.14844,
2010-01-16, 03:32:04,VALID,919.252,VALID,0,VALID,95.8187,VALID,0,VALID,19.5258,VALID,123,VALID,1.32383,
2010-01-16, 03:33:04,VALID,919.243,VALID,0,VALID,95.6281,VALID,0,VALID,19.5258,VALID,123,VALID,1.4125,
2010-01-16, 03:34:04,VALID,919.227,VALID,0,VALID,95.2775,VALID,0,VALID,19.5843,VALID,123,VALID,1.53516,
2010-01-16, 03:35:04,VALID,919.202,VALID,0,VALID,94.7743,VALID,0,VALID,19.6428,VALID,118,VALID,1.32578,
2010-01-16, 03:36:04,VALID,919.231,VALID,0,VALID,94.4313,VALID,0,VALID,19.6623,VALID,118,VALID,0.862891,
2010-01-16, 03:37:04,VALID,919.234,VALID,0,VALID,94.2254,VALID,0,VALID,19.6818,VALID,118,VALID,1.29336,
2010-01-16, 03:38:04,VALID,919.228,VALID,0,VALID,94.0501,VALID,0,VALID,19.6818,VALID,118,VALID,1.21875,
2010-01-16, 03:39:04,VALID,919.236,VALID,0,VALID,94.012,VALID,0,VALID,19.6818,VALID,118,VALID,1.525,